Temp
41 33 29 33 36 39 36 34 32 37 44 41 39 39 43 49 50 50 52 52 55 58 67 63 59 57 57 59 61 66 68 68 68 68 65 66 65 66 66 65 66 65 66 65
34 30 39 41 39 37 35 32 31 38 43 42 39 39 43 47 48 51 53 55 57 57 57 56 53 53 51 50 51 55 63 67 67 69 68 68 67 67 67 66 66 66 66 65
30 36 42 40 37 34 34 32 33 33 39 42 39 35 39 47 50 52 56 54 50 49 49 50 50 49 47 47 47 51 53 63 67 69 68 63 63 62 63 63 64 65 66 65
34 40 39 36 34 36 28 39 38 36 33 25 37 23 36 43 46 42 42 41 41 41 43 45 46 47 44 45 48 49 52 55 62 67 67 66 65 65 66 66 66 66 66 66
33 35 35 34 37 39 34 41 38 36 33 33 31 23 31 41 38 39 40 40 40 40 39 39 41 44 46 45 46 48 54 55 56 58 65 64 64 64 62 63 64 65 63 64
37 42 38 37 41 41 42 37 37 36 33 23 31 28 26 33 37 37 39 39 39 40 41 42 43 44 44 46 46 48 51 53 54 56 56 60 63 61 61 61 62 63 63 63
33 35 38 42 34 38 36 30 19 17 16 22 37 28 27 33 37 37 37 37 39 40 40 40 41 42 43 44 45 47 48 49 52 53 53 55 57 60 62 62 63 62 62 62
23 25 35 41 36 32 32 31 23 19 22 24 37 25 29 35 36 37 38 38 39 38 39 39 41 41 42 43 44 45 46 47 48 50 51 54 55 57 61 65 62 63 62 63
29 27 41 43 44 41 34 29 39 30 31 27 31 30 36 37 34 33 34 35 36 36 38 38 40 41 41 42 42 43 44 45 46 47 49 51 52 55 58 62 63 63 63 63
36 27 40 43 44 42 40 43 29 28 21 20 27 25 24 29 30 31 31 32 34 36 36 38 39 39 41 42 42 43 43 43 45 46 47 49 50 52 53 59 64 62 62 61
38 34 34 39 36 33 34 32 34 35 32 23 21 23 31 29 30 29 31 32 32 34 34 36 38 39 40 41 41 41 41 41 42 44 45 46 47 49 51 59 64 62 61 61
41 34 28 34 44 43 39 36 35 25 26 29 23 20 33 31 31 32 31 32 33 33 32 33 35 38 38 39 39 39 39 39 41 43 43 44 45 46 47 49 54 61 60 60
39 33 27 29 37 40 36 38 38 36 33 27 22 21 33 32 31 32 31 32 32 33 33 33 34 35 36 37 38 38 38 39 40 41 41 42 42 43 44 46 49 56 60 60
42 34 28 22 27 33 30 36 39 36 25 24 24 23 26 28 29 30 31 31 31 31 31 32 32 33 34 36 36 37 37 38 39 39 39 39 40 41 42 44 44 46 49 59
38 31 32 31 31 31 30 31 35 31 30 25 24 23 25 27 28 29 31 30 30 30 30 31 31 32 33 34 35 36 36 36 37 38 37 37 39 41 41 42 43 43 43 45
41 30 32 28 33 30 26 28 30 31 29 27 26 23 29 30 30 29 29 30 28 28 28 29 30 31 31 32 34 34 33 34 35 35 35 37 38 39 39 39 40 41 41 41
34 32 30 25 32 34 25 26 27 29 30 31 25 26 28 26 27 27 27 29 27 27 27 26 27 28 29 30 33 33 32 34 32 32 33 34 36 36 37 37 38 38 37 39
33 32 32 28 30 19 27 33 32 29 29 30 28 27 27 27 27 28 28 27 26 26 26 26 26 26 28 31 32 35 32 31 31 30 31 32 33 33 35 35 35 35 36 35
39 32 30 25 24 26 29 29 29 29 26 30 30 29 29 30 31 25 28 27 27 27 27 26 27 26 27 28 31 33 33 29 28 27 27 29 31 31 32 31 32 33 33 33
38 34 32 28 25 19 25 31 36 34 23 31 30 28 27 31 22 21 25 25 24 26 27 26 26 25 25 25 29 30 30 30 25 25 26 27 29 29 29 30 30 32 32 32
29 30 26 27 24 25 29 32 36 24 22 31 30 27 27 24 23 24 24 21 23 25 26 27 26 23 24 25 26 26 28 27 29 29 27 26 28 28 29 30 31 31 31 32
26 25 24 27 23 20 31 33 28 30 32 32 29 29 26 25 26 25 21 21 23 22 24 25 23 23 23 24 25 25 24 29 31 29 27 26 27 29 29 29 29 29 30 30
25 28 26 25 23 30 31 30 33 31 28 29 29 29 28 26 25 24 22 22 22 22 21 24 22 22 23 23 24 23 25 29 30 30 28 27 27 26 28 28 28 29 29 28
32 35 28 27 28 29 30 31 32 31 29 30 30 29 28 25 25 23 23 22 21 20 20 21 21 20 20 22 23 23 25 30 30 28 28 28 26 25 25 27 28 27 27 27
29 31 26 27 30 30 30 30 31 31 32 30 29 28 26 25 23 22 21 21 20 20 20 21 20 20 19 21 21 21 24 28 28 28 27 27 27 25 25 25 25 25 26 27
32 30 26 19 30 29 29 30 31 29 28 29 26 25 25 24 22 21 20 20 19 19 19 18 19 19 18 19 19 20 22 27 25 26 25 25 25 23 23 21 21 27 28 28
MSLP
1015.82 1016.54 1016.34 1016.19 1016.16 1015.92 1016.01 1015.65 1014.94 1013.95 1012.56 1011.68 1012.05 1011.44 1010.53 1008.43 1007.12 1007.19 1006.46 1005.68 1004.95 1004.11 1002.86 1003.16 1003.15 1003.51 1003.73 1004.24 1004.27 1004.08 1004.42 1004.19 1005.22 1006.14 1006.80 1007.17 1007.24 1007.36 1008.09 1008.54 1008.87 1009.15 1009.88 1010.64
1016.82 1016.34 1015.62 1015.64 1015.92 1016.03 1015.54 1015.35 1014.73 1013.53 1012.33 1012.19 1011.11 1010.69 1009.85 1008.76 1006.98 1006.36 1005.88 1005.20 1004.75 1004.46 1004.25 1004.75 1004.57 1004.40 1004.43 1004.89 1005.08 1004.99 1004.58 1004.30 1004.77 1005.18 1005.52 1005.92 1006.39 1006.92 1007.48 1007.99 1008.52 1008.80 1009.09 1009.73
1016.91 1015.32 1015.35 1015.63 1015.48 1015.66 1014.99 1014.86 1014.15 1013.69 1012.16 1011.78 1011.03 1009.64 1008.94 1007.20 1006.39 1005.60 1005.14 1005.53 1005.86 1005.67 1005.81 1006.04 1006.46 1006.19 1005.46 1005.62 1005.84 1005.59 1005.06 1004.05 1004.15 1004.42 1005.23 1006.00 1006.46 1007.01 1007.37 1007.64 1007.86 1008.04 1008.30 1008.68
1016.01 1015.21 1015.04 1014.80 1014.70 1015.11 1014.62 1014.09 1013.74 1013.25 1013.10 1011.96 1011.57 1009.91 1008.33 1007.22 1006.35 1007.05 1007.37 1007.71 1007.74 1007.79 1007.73 1007.26 1007.74 1008.43 1006.62 1006.55 1006.49 1006.29 1005.68 1004.67 1004.38 1004.14 1004.47 1005.19 1005.72 1006.15 1006.29 1006.46 1006.89 1007.39 1007.66 1007.38
1015.38 1014.81 1014.71 1014.60 1013.69 1014.18 1013.46 1013.49 1013.25 1012.98 1012.54 1012.03 1010.87 1011.22 1008.09 1007.70 1007.73 1008.75 1009.13 1009.07 1009.02 1009.26 1009.38 1008.70 1008.50 1008.43 1007.44 1007.46 1007.61 1006.73 1006.52 1005.89 1005.27 1004.65 1004.13 1004.75 1005.40 1005.67 1005.85 1006.07 1006.26 1006.85 1007.80 1008.14
1014.92 1014.17 1014.19 1013.56 1013.04 1013.31 1013.41 1013.23 1012.80 1012.33 1012.32 1011.98 1009.99 1010.92 1010.18 1009.98 1009.96 1009.91 1010.31 1010.15 1010.14 1010.07 1010.17 1009.75 1009.52 1009.11 1008.68 1008.94 1008.51 1006.98 1007.27 1006.73 1006.18 1005.12 1005.19 1005.25 1005.27 1005.52 1005.75 1005.90 1006.10 1006.27 1006.75 1007.53
1014.84 1013.72 1012.93 1012.67 1012.75 1012.46 1013.03 1013.32 1012.97 1012.58 1012.36 1010.71 1009.65 1010.48 1012.25 1012.31 1011.77 1011.54 1011.45 1011.42 1011.33 1011.07 1011.04 1010.65 1010.30 1010.15 1009.67 1009.55 1008.76 1007.53 1008.11 1007.28 1006.64 1006.19 1005.93 1005.78 1005.75 1005.54 1005.12 1005.19 1005.59 1005.86 1006.40 1006.75
1015.87 1013.65 1012.22 1011.86 1012.34 1012.49 1012.36 1012.90 1012.76 1012.18 1011.34 1010.85 1010.37 1010.91 1012.72 1013.26 1013.44 1013.17 1012.30 1012.51 1012.38 1012.09 1012.07 1011.65 1011.49 1011.17 1010.89 1010.31 1009.83 1008.86 1009.01 1008.55 1007.81 1006.93 1006.52 1006.34 1006.16 1005.82 1005.31 1004.76 1004.89 1005.17 1005.26 1005.18
1015.37 1013.55 1011.65 1011.32 1011.45 1012.14 1011.50 1011.82 1011.13 1011.57 1011.36 1011.10 1010.60 1012.02 1012.48 1013.69 1013.97 1014.05 1013.82 1013.86 1013.55 1013.10 1012.94 1012.82 1012.52 1011.97 1011.80 1011.22 1010.78 1010.50 1009.63 1008.86 1008.43 1008.27 1007.85 1007.19 1006.66 1006.06 1005.35 1004.67 1004.53 1004.53 1004.46 1004.17
1014.90 1013.55 1011.54 1011.18 1011.07 1010.44 1010.83 1010.72 1011.07 1011.38 1011.05 1010.55 1011.13 1012.78 1014.11 1014.55 1015.27 1015.42 1015.09 1014.93 1014.80 1014.22 1014.00 1013.64 1013.06 1012.87 1012.58 1012.04 1011.72 1010.93 1010.19 1009.67 1009.26 1008.87 1008.53 1007.77 1007.25 1006.56 1005.71 1004.55 1003.91 1003.85 1003.93 1004.24
1014.75 1013.87 1011.86 1011.30 1010.72 1010.29 1010.45 1010.36 1010.58 1010.83 1010.86 1011.30 1012.33 1014.36 1015.96 1016.46 1016.81 1016.55 1016.49 1016.14 1015.52 1015.21 1014.30 1014.59 1013.93 1013.77 1013.19 1012.89 1012.20 1011.49 1011.02 1010.37 1009.69 1009.58 1009.07 1008.14 1007.43 1006.76 1005.67 1004.09 1003.41 1003.51 1003.69 1003.82
1014.12 1013.31 1012.21 1010.66 1009.93 1009.99 1010.06 1009.79 1010.10 1010.62 1010.73 1011.51 1013.12 1016.11 1017.11 1017.44 1017.77 1017.80 1017.43 1016.89 1016.44 1015.76 1015.46 1015.76 1014.96 1013.84 1013.97 1013.61 1012.73 1011.99 1011.86 1011.68 1011.21 1010.43 1009.64 1008.80 1008.00 1007.29 1006.38 1005.29 1004.27 1003.20 1003.49 1003.80
1014.44 1013.66 1012.63 1011.17 1010.59 1010.25 1010.06 1009.74 1009.86 1010.32 1010.97 1012.84 1014.20 1016.78 1017.96 1018.40 1018.60 1018.59 1018.37 1018.26 1018.03 1017.96 1017.60 1016.38 1016.32 1015.64 1015.16 1014.76 1013.86 1013.44 1012.99 1012.21 1011.76 1011.22 1010.49 1009.50 1008.80 1008.13 1007.18 1006.24 1005.16 1003.93 1003.14 1003.39
1014.40 1014.61 1014.52 1014.27 1013.44 1012.08 1011.22 1010.66 1010.54 1010.85 1012.24 1014.25 1015.92 1017.61 1018.79 1019.29 1019.57 1019.57 1019.35 1019.30 1019.02 1018.86 1018.48 1017.69 1016.52 1016.56 1015.66 1015.35 1014.60 1014.54 1014.27 1013.73 1013.07 1012.33 1011.48 1010.45 1009.85 1009.24 1008.35 1007.43 1006.39 1005.62 1004.65 1003.46
1014.79 1014.70 1014.53 1014.46 1014.22 1013.20 1012.61 1011.97 1011.62 1012.27 1013.91 1015.21 1017.57 1018.74 1019.89 1020.48 1020.77 1020.77 1020.60 1020.51 1020.08 1019.69 1019.26 1019.13 1018.79 1018.03 1017.99 1017.20 1016.72 1016.46 1016.03 1015.17 1014.60 1013.65 1012.74 1012.21 1011.56 1010.55 1009.66 1008.72 1007.48 1006.85 1006.15 1005.63
1015.07 1014.92 1014.58 1014.45 1014.41 1014.59 1014.11 1014.21 1014.09 1014.83 1015.90 1017.21 1018.55 1019.91 1021.15 1021.68 1021.83 1021.58 1021.47 1021.44 1021.35 1021.35 1021.34 1020.99 1020.22 1019.62 1018.73 1018.33 1017.93 1017.62 1016.89 1016.57 1015.81 1015.01 1014.43 1013.65 1012.63 1011.79 1010.97 1010.23 1009.21 1008.40 1007.64 1006.79
1015.39 1015.23 1014.89 1014.97 1014.31 1014.23 1015.46 1016.98 1016.80 1016.88 1017.58 1018.17 1019.25 1020.87 1021.76 1022.24 1022.30 1022.43 1022.44 1022.44 1022.72 1022.56 1022.45 1022.11 1021.60 1021.14 1020.24 1019.96 1019.54 1018.87 1018.40 1017.78 1017.06 1016.43 1015.71 1014.92 1014.16 1013.27 1012.33 1011.67 1010.85 1009.67 1009.34 1008.64
1015.58 1015.34 1015.12 1015.14 1015.18 1016.27 1018.07 1018.40 1018.46 1018.51 1019.29 1019.89 1020.68 1021.57 1022.15 1022.65 1023.35 1023.71 1023.86 1023.86 1023.96 1023.55 1023.50 1023.24 1023.08 1022.56 1022.28 1021.78 1020.63 1019.79 1019.26 1018.59 1018.12 1017.58 1017.19 1016.38 1015.66 1014.88 1013.89 1012.81 1012.20 1011.72 1011.19 1010.54
1015.46 1015.41 1015.12 1015.42 1016.22 1017.78 1018.31 1019.06 1019.30 1019.33 1020.48 1020.98 1021.34 1021.96 1022.53 1022.92 1023.23 1024.53 1025.15 1025.40 1025.34 1024.84 1024.61 1024.48 1024.42 1023.98 1023.35 1022.52 1021.45 1020.41 1019.83 1019.69 1019.18 1018.85 1018.66 1017.88 1016.95 1016.05 1015.33 1014.53 1013.98 1013.39 1012.86 1012.13
1015.49 1015.61 1015.39 1015.94 1016.84 1018.35 1019.58 1019.69 1019.83 1019.98 1020.85 1021.56 1022.07 1022.62 1023.02 1022.97 1024.08 1025.93 1026.18 1025.97 1025.77 1025.61 1025.57 1025.26 1025.05 1024.86 1024.28 1023.49 1022.60 1021.87 1021.36 1020.94 1020.49 1020.62 1020.28 1019.32 1018.24 1017.35 1016.76 1016.20 1015.40 1014.82 1014.29 1013.90
1016.64 1016.82 1016.93 1017.17 1018.06 1019.42 1020.36 1020.06 1019.91 1020.70 1022.47 1022.23 1022.79 1023.28 1023.36 1024.24 1025.66 1026.47 1026.68 1026.79 1026.78 1026.43 1026.48 1026.32 1026.11 1025.68 1025.17 1024.46 1023.82 1023.21 1022.54 1022.10 1021.85 1021.88 1021.41 1020.58 1019.60 1019.02 1018.41 1017.69 1016.60 1015.82 1015.30 1014.90
1018.37 1018.44 1018.56 1018.84 1019.50 1020.77 1020.86 1020.38 1020.87 1022.25 1022.66 1023.02 1023.52 1024.02 1024.65 1025.31 1026.07 1026.62 1027.16 1027.50 1027.56 1027.60 1027.21 1027.15 1026.87 1026.36 1025.95 1025.64 1025.01 1024.52 1023.93 1023.42 1022.86 1022.48 1021.92 1021.44 1020.86 1020.09 1019.36 1018.45 1017.69 1017.20 1016.39 1016.00
1019.09 1019.44 1019.78 1020.88 1021.55 1022.13 1022.29 1022.32 1022.55 1022.85 1023.37 1023.88 1024.16 1024.85 1025.49 1026.15 1026.90 1027.39 1027.87 1028.23 1028.34 1028.23 1028.15 1027.71 1027.30 1027.08 1026.83 1026.51 1025.99 1025.70 1025.28 1024.34 1023.68 1023.07 1022.48 1021.83 1021.39 1021.03 1020.24 1019.48 1018.85 1018.13 1017.76 1017.55
1019.82 1019.88 1020.46 1021.43 1022.38 1022.71 1023.10 1023.41 1023.56 1023.81 1024.17 1024.48 1024.82 1025.49 1026.10 1026.82 1027.49 1027.98 1028.36 1028.69 1028.77 1028.83 1028.69 1028.56 1028.34 1028.17 1027.94 1027.59 1027.25 1026.97 1025.95 1024.67 1023.89 1023.57 1022.97 1022.39 1022.15 1021.89 1021.58 1021.02 1020.58 1020.11 1019.48 1019.23
1020.61 1020.60 1021.18 1021.99 1022.65 1023.31 1023.85 1024.19 1024.51 1024.85 1025.16 1025.56 1026.02 1026.48 1027.03 1027.48 1028.15 1028.73 1029.20 1029.49 1029.76 1029.90 1030.02 1029.76 1029.48 1029.31 1029.17 1028.67 1028.12 1027.46 1026.55 1025.51 1024.83 1024.43 1024.06 1023.66 1023.35 1023.24 1022.87 1022.51 1022.18 1021.87 1021.61 1021.16
1020.85 1021.07 1021.41 1021.67 1022.09 1022.97 1023.94 1024.70 1025.13 1025.57 1026.19 1026.71 1027.14 1027.84 1028.37 1028.77 1029.27 1029.77 1030.15 1030.53 1030.69 1030.68 1030.65 1030.61 1030.47 1030.28 1030.01 1029.50 1028.92 1028.31 1027.47 1026.49 1025.95 1025.54 1025.27 1025.03 1024.68 1024.38 1024.10 1023.85 1023.40 1023.00 1022.69 1022.37
Wind_Speed
3 1 8 11 10 13 8 13 16 17 20 23 15 15 18 25 25 13 17 10 10 13 17 3 8 9 4 8 7 4 11 14 11 11 10 10 12 10 9 8 10 11 10 10
3 11 13 8 7 9 12 12 17 19 20 18 18 17 17 22 28 17 19 19 15 12 3 9 9 10 11 9 9 7 6 8 11 10 10 6 8 7 7 7 8 9 12 12
8 8 4 7 9 8 14 11 14 14 19 16 15 18 14 20 14 19 19 10 11 7 8 10 12 11 9 12 12 12 10 6 11 13 7 3 5 3 4 5 8 12 14 14
8 6 7 6 6 7 12 6 14 15 11 9 7 12 19 15 13 13 13 14 13 13 12 13 13 9 10 11 10 10 11 9 3 9 10 11 8 8 7 8 9 10 14 17
9 4 5 11 18 7 11 8 13 14 11 12 15 6 7 11 6 10 13 14 16 14 12 14 14 13 15 12 11 9 11 9 9 8 2 9 8 6 3 5 10 9 5 7
11 3 3 8 11 8 7 8 12 9 5 8 16 9 4 10 8 11 13 16 16 16 15 15 14 14 14 12 10 11 12 12 10 10 9 5 8 6 6 5 8 7 8 6
8 4 4 5 4 3 4 4 4 5 2 7 3 4 7 14 15 14 13 14 15 16 15 15 17 15 15 15 15 13 12 12 13 11 9 8 7 6 10 10 8 9 7 6
4 8 2 4 6 3 5 7 4 5 4 9 10 2 6 8 12 13 12 14 15 16 14 16 16 14 14 15 15 15 13 12 12 13 12 9 8 5 7 9 7 9 11 12
4 7 2 3 3 5 3 5 12 7 7 7 2 3 4 16 16 15 15 14 13 15 15 16 16 14 13 14 15 14 14 14 14 13 10 10 10 10 10 12 5 9 8 6
4 8 3 1 3 8 13 3 1 1 4 4 4 4 5 15 15 14 16 14 14 12 14 14 14 15 13 14 13 15 15 15 15 14 12 10 11 12 13 11 11 10 8 6
7 5 5 2 6 4 2 3 4 5 5 1 2 3 7 10 12 13 13 13 13 13 12 12 13 13 14 14 15 16 16 16 17 15 14 14 13 14 13 9 12 9 7 11
4 4 4 12 5 5 5 5 6 4 5 3 3 3 6 8 11 11 12 14 15 13 18 14 14 18 17 16 17 19 18 17 15 15 15 14 14 15 13 13 15 6 8 9
5 4 6 7 3 2 3 2 1 2 2 3 2 3 7 10 10 12 13 13 13 12 12 13 14 14 16 16 17 17 18 18 17 17 16 16 17 16 16 15 15 13 6 8
0 2 7 5 7 9 7 6 3 3 4 4 5 5 8 11 12 12 13 14 14 14 16 16 18 17 18 19 20 19 18 18 17 17 17 18 18 18 16 15 14 14 15 5
1 2 2 5 17 14 17 11 10 13 8 5 5 6 8 10 10 11 11 12 17 19 19 18 17 17 16 17 18 17 16 17 17 16 18 18 16 16 17 16 16 15 14 13
1 3 3 3 3 13 20 22 17 16 13 12 11 7 6 6 7 11 12 14 17 17 17 18 17 18 18 18 16 17 17 16 16 16 16 16 17 17 18 17 17 16 15 15
2 4 3 3 11 5 10 16 15 15 16 5 5 4 4 8 13 14 13 13 15 16 15 16 16 16 17 17 15 15 16 15 16 16 16 17 16 16 17 17 17 19 18 16
4 3 2 3 3 6 1 7 9 18 13 10 10 6 6 11 12 12 13 12 12 15 16 14 13 14 14 14 14 12 16 16 16 17 17 17 16 16 16 16 17 17 15 16
3 3 0 2 4 4 3 6 6 6 8 11 5 5 4 5 5 12 13 11 11 11 11 11 11 12 13 15 14 15 14 17 16 18 17 16 16 16 16 16 15 14 14 15
4 10 1 1 2 2 3 9 6 8 4 8 8 6 4 5 4 3 9 10 10 12 11 11 12 11 13 14 14 15 15 13 17 15 14 15 15 16 15 14 14 11 11 12
5 4 6 4 3 4 8 11 4 3 1 8 7 7 10 6 4 4 6 8 8 10 12 11 10 11 13 14 13 14 15 15 11 12 11 13 15 13 14 13 13 13 12 12
3 4 3 3 3 1 12 2 3 5 5 8 5 7 11 9 8 8 7 7 9 10 11 11 9 11 12 13 12 13 14 13 13 10 12 12 13 13 12 15 13 13 13 13
3 2 2 4 3 3 6 9 7 5 4 3 6 7 8 7 7 6 6 7 8 10 9 10 10 11 12 13 12 13 13 13 12 13 12 13 12 12 13 15 15 13 14 12
2 2 3 3 3 5 6 7 6 6 6 6 7 8 7 8 7 7 7 7 8 9 10 10 10 11 12 12 13 11 13 13 13 14 13 12 12 12 12 10 11 11 12 11
1 3 3 4 7 9 5 5 7 8 9 10 9 7 8 8 8 7 6 7 7 7 7 8 8 9 10 11 11 12 14 14 13 13 12 13 10 10 10 9 9 9 11 14
1 3 2 4 8 3 5 6 7 9 7 7 9 8 7 6 6 5 5 5 5 6 7 7 9 9 9 9 10 12 12 13 12 12 10 9 8 7 7 7 7 13 15 21
Wind_Direction
331 72 235 218 217 241 252 255 276 279 283 287 287 280 269 280 283 272 274 269 267 264 266 20 55 42 51 61 334 256 201 197 178 183 186 193 204 190 193 193 193 177 178 180
23 240 242 244 231 238 250 262 262 282 272 282 293 279 270 273 272 256 259 273 265 259 348 58 50 42 46 23 11 349 245 185 191 196 204 199 193 202 200 186 188 182 177 179
204 241 195 247 256 237 257 252 268 256 294 277 278 288 268 269 277 256 252 301 22 34 74 49 41 30 41 30 2 349 325 253 200 196 178 87 98 94 141 180 187 199 192 185
242 263 233 237 240 197 260 202 258 276 284 286 48 292 286 287 289 46 38 41 42 32 30 47 28 0 43 24 5 351 343 3 344 186 172 179 197 196 210 203 208 207 207 186
260 250 260 274 262 198 266 253 260 260 259 298 289 244 274 293 87 37 31 34 38 37 25 27 26 5 30 22 353 356 352 6 11 33 162 176 195 206 177 182 191 190 200 195
248 233 250 240 274 216 285 285 279 251 256 269 270 202 346 354 357 49 32 31 31 32 28 31 30 18 22 13 2 23 2 13 11 33 26 19 204 184 185 187 191 187 174 185
315 246 237 199 326 220 159 316 328 335 353 247 280 150 44 2 7 34 33 37 35 36 31 30 26 18 19 11 12 25 5 5 9 19 18 9 352 309 214 196 190 171 176 175
308 322 209 136 176 235 189 161 190 299 298 321 309 247 39 24 12 15 29 36 39 38 31 34 30 24 18 14 15 18 11 12 9 8 5 357 340 315 293 228 192 192 190 189
301 267 240 191 179 159 263 179 229 279 282 256 231 48 126 26 22 16 21 13 17 34 31 30 29 27 18 19 17 12 11 14 15 8 0 354 339 321 297 276 220 206 218 226
275 278 246 209 324 232 218 183 60 220 273 288 52 72 8 11 11 15 16 10 10 23 26 29 28 25 21 22 18 20 18 18 10 3 359 359 341 326 313 270 242 205 209 200
254 233 283 317 204 247 158 217 225 173 245 301 319 67 20 26 11 12 15 5 14 18 20 22 29 24 27 24 24 22 21 16 15 5 357 357 351 340 326 286 247 221 198 200
290 284 277 271 276 230 240 232 194 150 275 93 126 69 29 38 27 15 10 11 12 15 20 2 20 23 20 20 23 24 19 17 8 4 2 3 358 351 347 342 341 185 200 198
340 317 294 330 9 277 292 271 259 144 67 24 84 103 42 34 25 13 16 19 23 22 18 13 18 26 22 18 23 20 16 15 13 7 4 8 8 358 356 354 349 338 207 212
94 100 56 23 318 295 269 305 305 103 74 103 42 77 30 28 21 13 15 24 23 18 18 18 21 16 19 17 19 14 12 9 8 12 11 10 7 3 0 358 4 358 358 289
85 248 267 75 32 20 46 36 69 74 43 66 78 72 31 26 19 16 14 34 26 22 20 16 16 15 13 17 18 13 12 11 5 11 16 14 5 9 9 5 12 11 17 3
70 295 294 327 83 39 41 32 47 72 75 87 103 85 53 43 33 29 23 39 33 25 18 11 13 11 14 12 10 12 13 7 7 13 12 8 11 14 14 11 15 17 15 26
317 335 324 342 332 336 31 18 40 55 44 44 64 66 86 62 47 32 19 33 30 26 17 12 10 6 10 6 2 22 9 6 14 13 10 9 7 12 15 14 15 19 18 20
304 290 259 190 264 44 277 22 69 64 46 70 89 99 103 96 68 43 27 39 27 25 16 11 6 4 3 2 7 13 20 17 16 15 8 8 8 8 9 16 19 17 17 21
206 277 137 116 54 115 47 20 347 6 55 32 48 167 168 175 101 49 32 34 31 28 21 15 6 3 0 4 4 14 21 19 19 15 8 5 5 8 11 15 13 17 20 19
33 8 179 87 102 148 60 325 317 302 69 37 37 17 1 221 54 47 13 23 25 29 24 20 12 9 12 6 11 16 14 21 20 8 1 5 7 12 9 10 15 15 22 28
349 4 17 20 98 95 345 315 275 280 77 67 59 44 50 79 78 96 42 28 21 23 19 18 19 21 13 8 12 16 12 14 14 6 5 11 19 16 13 7 15 17 21 27
40 325 24 339 70 90 349 352 57 97 54 99 82 79 91 93 85 70 49 38 29 22 20 18 19 22 16 13 18 19 9 5 7 4 13 16 18 23 20 21 20 22 23 24
46 54 79 16 87 51 10 57 60 70 89 37 101 99 103 96 85 72 60 43 28 22 15 15 19 17 16 11 20 15 359 2 13 17 17 18 22 20 21 29 24 24 26 28
68 49 89 165 141 112 81 65 64 64 75 73 79 90 89 99 86 75 56 40 33 21 20 11 16 19 13 5 8 4 4 4 19 20 17 21 19 20 23 26 28 27 24 29
237 14 112 83 118 113 81 100 106 83 82 78 64 60 73 75 58 58 49 41 34 29 14 19 21 22 8 0 3 360 5 14 19 22 22 20 21 18 16 24 26 31 30 33
57 139 170 217 161 128 134 145 131 115 111 106 103 81 68 97 104 93 73 56 39 35 24 21 22 18 4 4 4 357 1 16 20 23 19 20 19 13 15 12 7 26 39 39